Location: Piotrkow Trybunalski
(51.4000°N, 19.6830°E)
Time: 05:42:58
(UTC+02:00)

A-11 Canister half - Pass Details

Date: 28 January 2023
Orbit: 1526 x 1682 km, 47.3° (Epoch: 25 March)

Event Time Altitude Azimuth Distance (km) Brightness Sun altitude
Rises 08:02:12 0° 236° (SW) 4,672 11.3 4.0°
Reaches altitude 10° 08:05:17 10° 232° (SW) 3,697 10.9 4.4°
Maximum altitude 08:14:17 56° 158° (SSE) 1,797 10.0 5.5°
Drops below altitude 10° 08:23:32 10° 84° (E) 3,795 11.8 6.6°
Sets 08:26:44 0° 80° (E) 4,803 12.2 7.0°
